Location: Haliburton Scout Reserve
(45.0900°N, 78.3200°W)
Time: 08:19:18
(UTC-04:00)

S-56A Canister/Altair - Pass Details

Date: 31 January 2023
Orbit: 639 x 2493 km, 38.9° (Epoch: 27 March)

Event Time Altitude Azimuth Distance (km) Brightness Sun altitude
Rises 12:13:37 0° 231° (SW) 3,006 11.0 27.5°
Reaches altitude 10° 12:15:54 10° 221° (SW) 2,187 10.7 27.5°
Maximum altitude 12:20:22 33° 157° (SSE) 1,368 10.6 27.6°
Drops below altitude 10° 12:26:16 10° 95° (E) 2,915 10.6 27.6°
Sets 12:29:47 0° 87° (E) 4,182 11.3 27.6°
